STARLINK-31125 (58678 NORAD) Tracking and Keplerian Element Data

This shows tracking and keplerian element data for the satellite.

Feedback or suggestion? Click here.




ElementValue
Catalog58678
NameSTARLINK-31125
Epoch Orbit341
Epoch Day13.25002315
Epoch Year2024
RAAN202.078
Inclination43.0001
Eccentricity0.0001774
Argument of Perigee279.966
Mean Anonmoly47.3824
Mean Motion15.72979646
Decay Rate-0.0174405
L11 58678U 23211M 24013.25002315 -.01744050 00000+0 -14106-1 0 9996
L22 58678 43.0001 202.0780 0001774 279.9660 47.3824 15.72979646 3413



Live tracking and technical data element details for STARLINK-31125 (NORAD 58678). STARLINK-31125 can be tracked NOW for your location showing map with azimuth and elevation plus other details from your city location.







IsCatalogInMostPopularTable: catalog: 58678, numindb: 21
Update: records affected: 1



GetName: 58678 STARLINK-31125

Hit Count: updated at: Wed, 17 Apr 2024 02:49:23 GMT